Regional Weather Roundup
Issued by NWS Kansas City/Pleasant Hill, MO

Home | Current Version | Previous Version | Graphics & Text | Print | Product List | Glossary Off
Versions: 1 2 3 4 5 6 7 8 9 10 11 12 13 14 15 16 17 18 19 20 21 22 23 24 25 26 27 28 29 30 31 32 33 34 35 36 37 38 39 40 41 42 43 44 45 46 47 48 49 50

000
ASUS43 KEAX 160510
RWREAX

WEATHER ROUNDUP FOR EASTERN KANSAS AND NORTHWEST MISSOURI
NATIONAL WEATHER SERVICE KANSAS CITY/PLEASANT HILL MO
1100 PM CST FRI DEC 15 2017

KSZ040-057-103>105-MOZ028-029-037-043-160600-
...KANSAS CITY METROPOLITAN AREA...

CITY           SKY/WX    TMP DP  RH WIND       PRES   REMARKS
K.C. INTL      CLEAR     39  25  57 SW15      29.91S WCI  31
K.C. DOWNTOWN  CLEAR     44  25  47 SW17G24   29.93S
LEES SUMMIT    CLEAR     40  25  55 SW20      29.94F WCI  30
OLATHE - IXD   CLEAR     41  25  53 S20G29    29.95F WCI  32
OLATHE - OJC   CLEAR     38  26  62 S10       29.94F WCI  31
LAWRENCE       CLEAR     42  26  53 S21       29.93S WCI  33

$$

MOZ001>008-011>017-020>025-030>033-038>040-044>046-053-054-160600-
...NORTHERN AND CENTRAL MISSOURI...

CITY           SKY/WX    TMP DP  RH WIND       PRES   REMARKS
ST. JOSEPH     CLEAR     40  27  59 SW14      29.88S WCI  32
MOSBY          CLEAR     41  27  56 SW7       29.92S
WARRENSBURG    CLEAR     36  25  64 S13       29.97F WCI  27
WHITEMAN AFB   CLEAR     37  23  57 SW16      29.93F WCI  28
CLINTON        CLEAR     36  25  64 S7        30.01F WCI  30
SEDALIA        CLEAR     40  26  57 SW15      29.99F WCI  32
WARSAW         NOT AVBL
CHILLICOTHE      N/A     36  23  59 S9        29.91S WCI  29
KIRKSVILLE     CLEAR     36  27  69 SW13      29.90S WCI  27

$$

MOZ041-047>049-056>058-063>065-088>090-097-160600-
...EASTERN AND SOUTHERN MISSOURI...

CITY           SKY/WX    TMP DP  RH WIND       PRES   REMARKS
ST. LOUIS INTL CLEAR     37  26  64 SW9       30.05S WCI  30
SPIRIT OF STL  CLEAR     26  23  88 VRB3      30.04F
COLUMBIA       CLEAR     35  26  69 S13       30.00S WCI  26
JEFFERSON CITY CLEAR     35  25  66 SE5       30.04S WCI  31
ROLLA          CLEAR     33  25  72 SW13      30.04F WCI  24
OSAGE BEACH    CLEAR     33  24  69 S8        30.05S WCI  26
SPRINGFIELD    CLEAR     33  25  72 S9        30.06S WCI  25
BRANSON        MOCLDY    36  27  69 SW5       30.11S WCI  32
JOPLIN         CLEAR     40  26  57 S16       30.06F WCI  31
WEST PLAINS    CLEAR     33  24  69 SW5       30.11S WCI  29

$$

IAZ060-094-KSZ022-034>040-054-083-096-NEZ052-066-093-160600-
...KANSAS...SOUTHEAST NEBRASKA AND IOWA...

CITY           SKY/WX    TMP DP  RH WIND       PRES   REMARKS
TOPEKA         CLEAR    N/A N/A N/A SW10      29.91F
MANHATTAN      CLEAR     41  24  51 SW14      29.89S WCI  33
EMPORIA        CLEAR     38  24  57 S18G29    29.93F WCI  28
CHANUTE        CLEAR     38  23  55 S15       30.02R WCI  29
WICHITA        CLEAR     38  25  59 S13       29.96F WCI  30
OMAHA          CLOUDY    33  23  66 SE12      29.75F WCI  24
LINCOLN        CLEAR     40  22  48 SW10      29.77F WCI  33
FALLS CITY     CLOUDY    42  24  49 SW18      29.83F WCI  34
LAMONI         CLOUDY    34  23  64 S14       29.81F WCI  25
DES MOINES     CLOUDY    37  23  56 SW13      29.77F WCI  29

$$




USA.gov is the U.S. government's official web portal to all federal, state and local government web resources and services.